Terminal Aerodrome Forecast
Issued by NWS

Home | Current Version | Previous Version | Text Only | Print | Product List | Glossary On
Versions: 1 2 3 4 5 6 7 8 9 10 11 12 13 14
146
FTUS45 KRIW 291121
TAFCPR
TAF
KCPR 291121Z 2912/3012 25008KT P6SM SKC
     FM291800 32010KT P6SM SCT100
     FM292100 34010G15KT P6SM VCTS SCT060CB BKN080
     FM300000 02014G20KT P6SM VCTS SCT030CB BKN050
     FM300400 03011KT P6SM VCSH SCT025 BKN040
     FM300700 VRB05KT P6SM SCT025 BKN040=

USA.gov is the U.S. government's official web portal to all federal, state and local government web resources and services.